Location: Miami, Florida
(25.6830°N, 80.1700°W)
Time: 16:38:51
(UTC-04:00)

Tiangong 2 - Visible Passes

Search period start: 20 July 2018 00:00
Search period end: 30 July 2018 00:00
Orbit: 386 x 394 km, 42.8° (Epoch: 20 July)

Date Brightness Start Highest point End Pass type
(mag) Time Alt. Az. Time Alt. Az. Time Alt. Az.
23 Jul 3.4 22:00:44 10° NNW 22:02:33 18° NNE 22:02:33 18° NNE visible
24 Jul 3.8 21:04:02 10° N 21:05:06 11° NNE 21:06:11 10° NE visible
24 Jul 4.4 22:39:07 10° NW 22:39:40 14° NW 22:39:40 14° NW visible
25 Jul 2.0 21:41:34 10° NW 21:44:31 37° NNE 21:44:31 37° NNE visible
26 Jul 3.0 20:44:15 10° NNW 20:46:43 20° NNE 20:49:10 10° E visible
26 Jul 3.8 22:20:41 10° WNW 22:21:45 18° W 22:21:45 18° W visible
27 Jul 1.0 21:22:45 10° NW 21:25:56 83° SW 21:26:44 47° SE visible
28 Jul 3.9 22:03:07 10° WSW 22:04:07 13° WSW 22:04:07 13° WSW visible
29 Jul 2.6 21:04:22 10° WNW 21:07:11 29° SW 21:09:14 15° SSE visible
